Weather Roundup
Issued by NWS Springfield, MO

Home | Current Version | Previous Version | Text Only | Print | Product List | Glossary On
Versions: 1 2 3 4 5 6 7 8 9 10 11 12 13 14 15 16 17 18 19 20 21 22 23 24 25 26 27 28 29 30 31 32 33 34 35 36 37 38 39 40 41 42 43 44 45 46 47 48 49 50
000
NZUS99 KSGF 202107
HRRSGF

HOURLY WEATHER
NATIONAL WEATHER SERVICE SPRINGFIELD MO
400 PM CDT SUN JUN 20 2021

......SGF CWA......

CITY           SKY/WX    TMP DP  RH WIND       PRES   REMARKS
SPRINGFIELD    MOSUNNY   91  67  44 SW14G23   29.71F HX  94
JOPLIN         SUNNY     93  67  42 SW20G29   29.68F HX  96
WEST PLAINS    MOSUNNY   90  66  45 SW14G23   29.78S HX  92
ROLLA          MOSUNNY   89  67  47 S14       29.72F HX  92
OSAGE BEACH    PTSUNNY   92  69  47 SW13      29.69F HX  97
BRANSON        SUNNY     90  66  45 S9G17     29.77S HX  92

......SURROUNDING SGF CWA......

CITY           SKY/WX    TMP DP  RH WIND       PRES   REMARKS
CHANUTE        SUNNY     97  69  40 S21G30    29.62F HX 103
PARSONS        LGT RAIN  97  67  37 S14G29    29.65S HX 101
COFFEYVILLE    SUNNY     97  68  38 S22G32    29.63S HX 102
EMPORIA        SUNNY     98  64  32 W14G23    29.60S HX 100
GROVE OK       SUNNY     91  64  40 S18G25    29.72S HX  93
ROGERS AR      MOSUNNY   90  66  45 S18G28    29.77S HX  92
SILOAM SPRINGS SUNNY     90  69  50 S20       29.76S HX  94
HARRISON AR    SUNNY     88  66  48 S10G20    29.77F HX  90
NEAR YELLVILLE MOSUNNY   92  67  43 S13G23    29.74F HX  95

......KANSAS AND MISSOURI......

CITY           SKY/WX    TMP DP  RH WIND       PRES   REMARKS
KANSAS CTY INT MOSUNNY   93  69  45 SW9G20    29.59S HX  98
DOWNTOWN KC    MOSUNNY   95  68  41 SW12G22   29.55F HX  99
COLUMBIA       SUNNY     91  68  46 S16G26    29.66F HX  95
SEDALIA        SUNNY     93  67  42 S18G30    29.63F HX  96
ST JOSEPH      MOSUNNY   93  71  48 SW12      29.58S HX 100
ST LOUIS       PTSUNNY   92  66  42 S16       29.68F HX  94
SPIRIT OF STL  PTSUNNY   90  70  51 S8        29.66F HX  95
KIRKSVILLE     SUNNY     85  74  69 S14G21    29.63F HX  92
WICHITA        MOSUNNY  101  65  30 SW15G30   29.58F HX 104
TOPEKA         SUNNY     97  67  37 SW7G23    29.57S HX 101
OLATHE         SUNNY     94  67  41 SW15G25   29.59F HX  97

......TENNESSEE......

CITY           SKY/WX    TMP DP  RH WIND       PRES   REMARKS
MEMPHIS        MOSUNNY   91  73  55 S13G29    29.81F HX  99
NASHVILLE      MOSUNNY   92  67  43 W12G17    29.82S HX  95

......ARKANSAS.......

CITY           SKY/WX    TMP DP  RH WIND       PRES   REMARKS
FAYETTEVILLE   SUNNY     91  64  40 S20G29    29.76F HX  92
FT SMITH       MOSUNNY   94  67  41 S16G25    29.72F HX  97
LITTLE ROCK    MOSUNNY   93  72  50 S15G22    29.78S HX 101

......OKLAHOMA.......

CITY           SKY/WX    TMP DP  RH WIND       PRES   REMARKS
TULSA          MOSUNNY   96  67  38 S17G30    29.66S HX 100
PONCA CITY     SUNNY    100  64  30 S21G31    29.62F HX 102
MCALESTER      SUNNY     91  68  46 S13G31    29.74F HX  95
OKLAHOMA CITY  MOSUNNY   93  64  38 S17G29    29.69F HX  94

......IOWA............

CITY           SKY/WX    TMP DP  RH WIND       PRES   REMARKS
DES MOINES     PTSUNNY   84  70  62 S15G22    29.55F THUNDER
QUAD CITIES    PTSUNNY   82  67  60 S13G24    29.59F

......ILLINOIS........

CITY           SKY/WX    TMP DP  RH WIND       PRES   REMARKS
QUINCY         MOSUNNY   83  70  64 SE9       29.63F
CHICAGO        CLOUDY    82  69  64 S7        29.63F




USA.gov is the U.S. government's official web portal to all federal, state and local government web resources and services.